Weather History for KBVO - October, 2012

Change the Weather History Date:

Saturday, October 13, 2012

  Actual Average Record
Temperature  
Mean Temperature 68 °F -  
Max Temperature 73 °F 76 °F 92 °F (1952)
Min Temperature 64 °F 49 °F 28 °F (2002)
Cooling Degree Days 4    
Growing Degree Days 18 (Base 50)    
Moisture  
Dew Point 67 °F    
Average Humidity 94    
Maximum Humidity 100    
Minimum Humidity 83    
Precipitation  
Precipitation 1.48 in - - ()
Sea Level Pressure  
Sea Level Pressure 29.83 in    
Wind  
Wind Speed 7 mph (South)    
Max Wind Speed 14 mph    
Max Gust Speed 21 mph    
Visibility 6 miles    
Events Fog , Rain    
Averages and records for this station are not official NWS values.
T = Trace of Precipitation, MM = Missing Value Source: NWS Daily Summary

Daily Weather History Graph

Daily Weather History Graph

Search for Another Location

Airport or City:

Trip Planner

Search our weather history database for the weather conditions in past years. The results will help you decide how hot, cold, wet, or windy it might be!

Date:

Astronomy

Oct. 13, 2012 Rise Set
Actual Time 7:30 AM CDT 6:49 PM CDT
Civil Twilight 7:04 AM CDT 7:15 PM CDT
Nautical Twilight 6:34 AM CDT 7:45 PM CDT
Astronomical Twilight 6:04 AM CDT 8:15 PM CDT
Moon 5:23 AM CDT (10/13) 5:32 PM CDT (10/13)
Length of Visible Light 12h 11m
Length of Day
11h 19m
Waning Crescent, 5% of the Moon is Illuminated
Oct 13
Waning Crescent
Oct 15
New
Oct 21
First Quarter
Oct 29
Full
Nov 6
Last Quarter

Hourly Weather History & Observations

Time (CDT) Temp. Dew Point Humidity Pressure Visibility Wind Dir Wind Speed Gust Speed Precip Events Conditions
12:53 AM 64.0 °F 63.0 °F 96% 30.02 in 10.0 mi Calm Calm - N/A   Overcast
2:41 AM 66.2 °F 64.4 °F 94% 30.01 in 7.0 mi SSE 8.1 mph - N/A   Scattered Clouds
5:53 AM 64.9 °F 64.0 °F 97% 29.96 in 7.0 mi South 10.4 mph - N/A   Clear
7:53 AM 66.0 °F 64.0 °F 93% 29.94 in 6.0 mi South 9.2 mph - N/A   Scattered Clouds
8:01 AM 66.2 °F 64.4 °F 94% 29.96 in 7.0 mi South 11.5 mph - N/A   Mostly Cloudy
8:53 AM 69.1 °F 64.9 °F 87% 29.92 in 8.0 mi South 9.2 mph - N/A   Overcast
9:53 AM 70.0 °F 66.0 °F 87% 29.91 in 9.0 mi South 12.7 mph 19.6 mph 0.00 in   Overcast
10:06 AM 71.6 °F 66.2 °F 83% 29.94 in 10.0 mi South 8.1 mph 20.7 mph N/A   Overcast
10:53 AM 70.0 °F 66.9 °F 90% 29.88 in 7.0 mi South 12.7 mph 18.4 mph 0.01 in Rain Light Rain
11:23 AM 69.8 °F 66.2 °F 88% 29.91 in 7.0 mi South 8.1 mph - 0.08 in   Overcast
11:53 AM 70.0 °F 68.0 °F 93% 29.87 in 8.0 mi South 4.6 mph - 0.08 in   Overcast
12:53 PM 73.0 °F 69.1 °F 87% 29.83 in 10.0 mi South 10.4 mph 17.3 mph N/A   Overcast
1:53 PM 72.0 °F 70.0 °F 93% 29.81 in 5.0 mi South 9.2 mph - 0.01 in Rain Light Rain
2:53 PM 71.1 °F 70.0 °F 96% 29.78 in 3.0 mi South 6.9 mph - 0.03 in Rain Rain
3:28 PM 71.6 °F 71.6 °F 100% 29.77 in 3.0 mi SSE 8.1 mph - 0.08 in Rain Rain
3:53 PM 73.0 °F 72.0 °F 96% 29.75 in 7.0 mi South 8.1 mph - 0.08 in   Scattered Clouds
4:53 PM 73.0 °F 71.1 °F 93% 29.72 in 1.2 mi South 10.4 mph - 0.14 in Rain Light Rain
4:57 PM 71.6 °F 71.6 °F 100% 29.73 in 0.5 mi SSE 13.8 mph 19.6 mph 0.15 in Fog , Rain Heavy Rain
5:06 PM 71.6 °F 71.6 °F 100% 29.74 in 0.8 mi South 8.1 mph - 0.33 in Rain Heavy Rain
5:14 PM 71.6 °F 71.6 °F 100% 29.78 in 1.5 mi SSW 10.4 mph 17.3 mph 0.40 in   Mist
5:53 PM 66.0 °F 64.9 °F 96% 29.67 in 3.0 mi SSE 6.9 mph 19.6 mph 1.11 in Rain Light Rain
7:53 PM 66.0 °F 64.9 °F 96% 29.71 in 10.0 mi South 11.5 mph 20.7 mph 0.02 in   Mostly Cloudy
9:53 PM 64.9 °F 64.9 °F 100% 29.69 in 10.0 mi SW 3.5 mph - N/A   Scattered Clouds
10:53 PM 66.9 °F 64.9 °F 93% 29.67 in 10.0 mi SW 3.5 mph - N/A   Mostly Cloudy